CW8014 Weather Reports


time (UTC)temp
C
wind
direction
speed
KPH
gust
KPH
rain 1hr
cm
rain 24hr
cm
rain mn
cm
humidity
%
barometer
mb
20260905155410 17 313 12.9 24.1 0.00 0.00 0.00 68 1021.6
20260905154410 18 5 11.3 22.5 0.00 0.00 0.00 68 1021.4
20260905153410 18 297 11.3 25.7 0.00 0.00 0.00 67 1021.4
20260905152411 19 298 17.7 37.0 0.00 0.00 0.00 65 1021.2
20260905151410 19 296 19.3 30.6 0.00 0.00 0.00 66 1021.1
20260905145411 19 348 16.1 29.0 0.00 0.00 0.00 67 1021.0
20260905144410 18 334 16.1 29.0 0.00 0.00 0.00 68 1020.9
20260905143410 20 292 17.7 32.2 0.00 0.00 0.00 63 1020.7
20260905120406 20 296 17.7 37.0 0.00 0.00 0.00 63 1019.0
20260905115406 19 269 14.5 27.4 0.00 0.15 0.00 67 1018.8
20260905112406 19 348 14.5 32.2 0.00 0.15 0.00 71 1018.5
20260905111406 19 269 19.3 40.2 0.00 0.15 0.00 72 1018.4
20260905110406 18 336 11.3 25.7 0.00 0.15 0.00 76 1018.3
20260905105406 17 314 14.5 32.2 0.00 0.23 0.00 73 1018.1
20260905104406 18 277 16.1 27.4 0.00 0.23 0.00 71 1018.0
20260905103407 18 265 16.1 40.2 0.00 0.23 0.00 69 1017.8
20260905102406 18 276 17.7 38.6 0.00 0.23 0.00 69 1017.5
20260905100406 18 305 17.7 32.2 0.00 0.23 0.00 67 1017.4
20260905095406 18 274 14.5 33.8 0.00 0.71 0.00 69 1017.3
20260905092406 18 263 17.7 37.0 0.00 0.71 0.00 76 1016.8
20260905091407 17 213 14.5 29.0 0.00 0.71 0.00 83 1016.8
20260905090406 17 273 9.7 20.9 0.00 0.71 0.00 84 1016.8
20260905085406 17 264 11.3 27.4 0.00 0.79 0.00 83 1016.6
20260905083407 17 274 11.3 25.7 0.00 0.79 0.00 85 1016.5
20260905082406 17 263 8.0 22.5 0.00 0.79 0.00 87 1016.4
20260905081407 16 274 11.3 27.4 0.00 0.79 0.00 87 1016.4
20260905075406 16 267 8.0 25.7 0.00 0.79 0.00 87 1016.1
20260905074406 16 224 12.9 27.4 0.00 0.79 0.00 86 1016.0
20260905073406 16 217 9.7 22.5 0.00 0.79 0.00 87 1016.0
20260905072406 16 211 6.4 16.1 0.00 0.79 0.00 88 1015.8
20260905071406 16 182 8.0 22.5 0.00 0.79 0.00 87 1015.7
20260905070406 15 252 8.0 25.7 0.00 0.79 0.00 88 1015.5
20260905065406 15 256 6.4 20.9 0.00 0.79 0.00 88 1015.4
20260905064406 15 275 6.4 19.3 0.00 0.79 0.00 89 1015.2
20260905063406 15 288 8.0 19.3 0.00 0.79 0.00 89 1015.3
20260905062406 15 193 8.0 22.5 0.00 0.79 0.00 90 1015.2
20260905061406 14 248 6.4 16.1 0.00 0.79 0.00 90 1015.1
20260905060406 14 175 8.0 19.3 0.00 0.79 0.00 90 1015.1
20260905053406 14 237 4.8 12.9 0.00 0.81 0.00 90 1014.9
20260905052406 14 207 6.4 20.9 0.00 0.81 0.00 89 1014.8
20260905051406 14 243 6.4 17.7 0.00 0.81 0.00 89 1014.7
20260905050406 14 202 8.0 19.3 0.00 0.81 0.00 89 1014.8
20260905045406 13 232 4.8 12.9 0.00 0.89 0.00 90 1014.7
20260905043406 13 190 3.2 9.7 0.00 0.89 0.00 91 1014.5
20260905042406 13 251 3.2 12.9 0.00 0.89 0.00 91 1014.5
20260905041408 13 252 4.8 14.5 0.00 0.89 0.00 91 1014.4
20260905035406 13 213 4.8 14.5 0.00 0.99 0.00 91 1014.4
20260905033406 13 241 4.8 12.9 0.00 0.99 0.00 91 1014.5
20260905032406 13 181 3.2 9.7 0.00 0.99 0.00 91 1014.4
20260905030406 13 229 3.2 9.7 0.00 0.99 0.00 90 1014.4
20260905025407 13 234 3.2 9.7 0.00 0.99 0.00 90 1014.4
20260905024406 13 187 4.8 11.3 0.00 0.99 0.00 90 1014.3
20260905023406 13 234 4.8 11.3 0.00 0.99 0.00 89 1014.3
20260905022406 13 287 4.8 12.9 0.00 0.99 0.00 89 1014.2
20260905020407 13 240 4.8 12.9 0.00 0.99 0.00 89 1014.1
20260905015406 13 245 3.2 12.9 0.00 1.02 0.00 89 1014.0
20260905014406 13 229 4.8 12.9 0.00 1.02 0.00 89 1013.9
20260905011406 13 228 4.8 12.9 0.00 1.02 0.00 90 1013.8
20260905005406 13 244 3.2 11.3 0.00 1.04 0.00 91 1013.8
20260905002406 13 244 4.8 14.5 0.00 1.04 0.00 92 1013.6
20260905001406 13 259 3.2 11.3 0.00 1.04 0.00 92 1013.6
20260905000406 13 301 3.2 11.3 0.00 1.04 0.00 92 1013.6
20260904235406 13 209 3.2 8.0 0.00 1.04 0.00 91 1013.5
20260904234407 13 246 3.2 9.7 0.00 1.04 0.00 91 1013.5
20260904233406 13 247 3.2 8.0 0.00 1.04 0.00 91 1013.5
20260904232408 14 296 3.2 8.0 0.00 1.04 0.00 91 1013.3
20260904231406 14 274 3.2 9.7 0.00 1.04 0.00 90 1013.3
20260904230407 14 286 4.8 11.3 0.00 1.04 0.00 91 1013.2
20260904225408 14 266 4.8 14.5 0.00 1.04 0.00 90 1013.2
20260904224407 15 272 4.8 12.9 0.00 1.04 0.00 90 1013.1
20260904223407 15 253 8.0 19.3 0.00 1.04 0.00 90 1013.1
20260904222408 15 236 6.4 17.7 0.00 1.04 0.00 90 1013.0
20260904221407 14 256 4.8 11.3 0.00 1.04 0.00 90 1012.9
20260904220407 14 221 3.2 6.4 0.00 1.04 0.00 90 1012.8
20260904215407 14 257 3.2 6.4 0.00 1.04 1.04 90 1012.8
20260904181409 16 305 6.4 16.1 0.00 1.04 1.04 85 1010.8
20260904180409 16 276 8.0 16.1 0.00 1.04 1.04 85 1010.7
20260904175409 16 208 4.8 14.5 0.00 1.04 1.04 84 1010.6